Location: North Evanston
(42.0634°N, 87.6976°W)
Time: 13:52:11
(UTC+00:00)

Vanguard 3 - Pass Details

Date: 10 May 2026
Orbit: 507 x 3204 km, 33.3° (Epoch: 6 June)

Event Time Altitude Azimuth Distance (km) Brightness Sun altitude
Rises 00:42:55 0° 270° (W) 6,883 13.4 1.8°
Reaches altitude 10° 00:48:07 10° 267° (W) 5,595 12.7 1.0°
Maximum altitude 01:02:55 51° 198° (SSW) 2,363 9.5 -1.6°
Drops below altitude 10° 01:11:41 10° 126° (SE) 3,412 9.7 -3.0°
Enters shadow 01:13:13 - 122° (ESE) 3,838 9.9 -3.3°
Sets 01:14:05 0° 120° (ESE) 4,097 - -3.4°
